CSS (TIANHE-1)
1 48274U 21035A   25291.19922845  .00041050  00000-0  49287-3 0  9998
2 48274  41.4673 354.1630 0011352 235.4375 124.5392 15.60039860255359
TUBIN
1 48900U 21059X   25291.30640604  .00233648  00000-0  13561-2 0  9994
2 48900  97.6735 112.5754 0001759 110.1106 250.0349 15.77868881240511
LEDSAT
1 49069U 21073D   25287.95720868  .11134366  25314-5  40586-3 0  9991
2 49069  97.3489  17.4861 0013151 272.2565  87.7231 16.42992651231488
CUTE
1 49263U 21088D   25291.22082683  .00031561  00000-0  49009-3 0  9994
2 49263  97.4403  11.7727 0007009 113.8002 246.3987 15.53887330224661
TeikyoSat 4
1 49396U 21102B   25291.27872176  .00002876  00000-0  18918-3 0  9999
2 49396  97.3983 324.9505 0013713  50.7810 309.4634 15.08263681216240
Z-Sat
1 49399U 21102E   25291.26859176  .00007187  00000-0  37966-3 0  9990
2 49399  97.3671 328.8843 0017913  16.1769 344.0032 15.15658439216761
KOSEN 1
1 49402U 21102H   25291.11763638  .00013026  00000-0  56621-3 0  9994
2 49402  97.3568 333.1901 0014530 348.2091  11.8803 15.22311854217136
HO-113
1 50466U 21131B   25291.31143052  .00000966  00000-0  31428-3 0  9999
2 50466  98.5073  20.0123 0005276 103.5238 256.6539 14.40996283200278
SNUGLITE 2
1 52899U 22065F   25291.22564905  .00002114  00000-0  41596-3 0  9996
2 52899  98.1880  72.0978 0008546  67.4389 292.7717 14.63598407175591
UmKA 1 (RS40S)
1 57172U 23091G   25291.22513117  .00009714  00000-0  49297-3 0  9993
2 57172  97.5435 345.9488 0012577 238.4629 121.5376 15.17062542127271
CubeBel-2 (EU11S)
1 57175U 23091K   25291.27003776  .00015772  00000-0  68985-3 0  9992
2 57175  97.5431 348.0216 0010150 242.0181 118.0028 15.22110054127411
ENSO
1 58470U 23185J   25286.99676613  .00315332  00000-0  14127-2 0  9997
2 58470  97.3538   7.7888 0004942 287.2111  72.8618 15.83344704104804
SONATE-2
1 59112U 24043Q   25291.27306823  .00034868  00000-0  83826-3 0  9990
2 59112  97.5292  65.6378 0009789   9.3377 350.8049 15.41193848 90429
MO-122
1 60209U 24125G   25291.24624822  .00036587  00000-0  85702-3 0  9994
2 60209  97.2612 141.7389 0017444  31.6822 328.5472 15.41854148 72046
GRBBeta
1 60237U 24128C   25291.24973551  .00005669  00000-0  40924-3 0  9998
2 60237  61.9925 343.5578 0057028  84.8290 275.9306 15.03970843 69849
Curium One
1 60242U 24128H   25291.30143323  .00010668  00000-0  68782-3 0  9994
2 60242  61.9819 339.4681 0056852  81.2996 279.4531 15.07452977 69929
ROBUSTA-3A
1 60243U 24128J   25291.28246128  .00010299  00000-0  67568-3 0  9990
2 60243  61.9893 340.8375 0056431  78.8610 281.8821 15.06865823 69900
CatSat
1 60246U 24125J   25291.24031707  .00039690  00000-0  11184-2 0  9999
2 60246  97.2426 139.3948 0037432 350.4203   9.6323 15.35609476 69995
HYPERVIEW-1G (RS66S)
1 61772U 24199AP  25291.30109900  .00046411  00000-0  10708-2 0  9993
2 61772  97.3296 160.2544 0014048  82.6476 277.6368 15.42313783 97050
AO-123
1 61781U 24199AY  25291.31955919  .00012601  00000-0  42873-3 0  9996
2 61781  97.3325 157.4187 0017061  92.8895 267.4299 15.30423295 96865
ZIMSAT 2
1 61783U 24199BA  25291.28025985  .00118212  00000-0  17444-2 0  9995
2 61783  97.3228 162.3200 0012663  76.9099 283.3568 15.54868409100343
HADES-R (SO-124)
1 62690U 25009CK  25291.18271892  .00110607  00000-0  24906-2 0  9994
2 62690  97.3978  12.3842 0001835 311.8313  48.2778 15.42863962 42171
HYDRA-T
1 62692U 25009CM  25291.26429126  .00116140  00000-0  25545-2 0  9998
2 62692  97.3979  12.5798 0001998 298.0915  62.0131 15.43543579 42199
JINJUSat 1B
1 63210U 25052A   25291.22448983  .00021195  00000-0  87116-3 0  9999
2 63210  97.4228 183.8239 0002577 185.0128 175.1085 15.24195274 33122
NUSHSAT 1
1 63211U 25052B   25291.25098111  .00026133  00000-0  10514-2 0  9991
2 63211  97.4218 183.9109 0002301 190.2121 169.9071 15.24871603 33139
TEVEL2-4
1 63213U 25052D   25291.23076371  .00023910  00000-0  97687-3 0  9992
2 63213  97.4135 183.5509 0000955 197.5154 162.6050 15.24374904 33126
TEVEL2-5
1 63214U 25052E   25291.23402661  .00023839  00000-0  97538-3 0  9993
2 63214  97.4137 183.5476 0000980 196.2285 163.8922 15.24326343 33126
TEVEL2-6
1 63215U 25052F   25291.23962914  .00024232  00000-0  99268-3 0  9996
2 63215  97.4138 183.5436 0000960 202.4374 157.6821 15.24282323 33129
TEVEL2-1
1 63217U 25052H   25290.94309527  .00026008  00000-0  10741-2 0  9991
2 63217  97.4108 183.1061 0000782 268.8061  91.3087 15.23992581 33074
TEVEL2-3
1 63218U 25052J   25291.13989872  .00022395  00000-0  92531-3 0  9994
2 63218  97.4110 183.3036 0000827 268.8723  91.2419 15.24009359 33102
TEVEL2-2
1 63219U 25052K   25291.14084263  .00022486  00000-0  92946-3 0  9997
2 63219  97.4109 183.3013 0000786 267.2785  92.8362 15.23994703 33100
TEVEL2-9
1 63237U 25052AD  25291.24898827  .00022563  00000-0  97031-3 0  9993
2 63237  97.4174 183.1878 0005154 285.6675  74.3992 15.22641494 33092
TEVEL2-7
1 63238U 25052AE  25290.66664324  .00022133  00000-0  95573-3 0  9994
2 63238  97.4175 182.5967 0005269 288.5368  71.5295 15.22505721 33002
TEVEL2-8
1 63239U 25052AF  25291.26278948  .00021976  00000-0  94913-3 0  9996
2 63239  97.4174 183.1723 0005273 285.9249  74.1407 15.22500109 33091
HYDRA-W
1 63490U 25052BL  25291.22586296  .00070400  00000-0  22122-2 0  9997
2 63490  97.4112 184.5852 0005652 275.3848  84.6749 15.32709933 33192
HADES-ICM (SO-125)
1 63492U 25052BN  25291.23250944  .00066675  00000-0  21691-2 0  9997
2 63492  97.4121 184.4416 0006298 281.1039  78.9494 15.31611020 33183
